When you browse on this site, cookies collect data to enhance your experience and personalize the content and advertising you see.
Visit our Privacy Policy to learn more. By continuing to use the site, you agree to this use of cookies and data.
  • In Spain
  • List of Countries
  • For 7 days
  • Water Temperature
  • Weather Map
  • Weather Widgets
  • user-avatar
    Login

    Hourly Weather Blonnaya

    Today, 30 May, Saturday

    Time Temperature Precipitation Wind Pressure Humidity
    00:00 +13°C° 0 mm 5 mps 745 mmHg 88%
    01:00 +13°C° 0 mm 5 mps 745 mmHg 89%
    02:00 +13°C° 0 mm 5 mps 745 mmHg 90%
    03:00 +13°C° 0 mm 5 mps 744 mmHg 90%
    04:00 +13°C° 0 mm 5 mps 744 mmHg 90%
    05:00 +13°C° 0 mm 5 mps 744 mmHg 90%
    06:00 +13°C° 0 mm 5 mps 744 mmHg 89%
    07:00 +14°C° 0 mm 6 mps 743 mmHg 87%
    08:00 +14°C° 0 mm 6 mps 743 mmHg 85%
    09:00 +14°C° 0 mm 6 mps 743 mmHg 85%
    10:00 +14°C° 0 mm 6 mps 743 mmHg 85%
    11:00 +14°C° 0 mm 6 mps 742 mmHg 86%
    12:00 +14°C° 0.8 mm 7 mps 742 mmHg 88%
    13:00 +14°C° 0.8 mm 7 mps 742 mmHg 91%
    14:00 +12°C° 0.8 mm 7 mps 742 mmHg 93%
    15:00 +12°C° 0.8 mm 8 mps 741 mmHg 93%
    16:00 +12°C° 0.8 mm 8 mps 741 mmHg 94%
    17:00 +12°C° 0.8 mm 8 mps 740 mmHg 94%
    18:00 +12°C° 0.1 mm 8 mps 740 mmHg 93%
    19:00 +12°C° 0.1 mm 8 mps 740 mmHg 92%
    20:00 +13°C° 0.1 mm 9 mps 740 mmHg 91%
    21:00 +12°C° 0.5 mm 8 mps 740 mmHg 91%
    22:00 +12°C° 0.5 mm 8 mps 740 mmHg 91%
    23:00 +12°C° 0.5 mm 8 mps 740 mmHg 90%

    Tomorrow, 31 May, Sunday

    Time Temperature Precipitation Wind Pressure Humidity
    00:00 +12°C° 1.8 mm 8 mps 740 mmHg 92%
    01:00 +11°C° 1.8 mm 8 mps 740 mmHg 93%
    02:00 +11°C° 1.8 mm 7 mps 740 mmHg 95%
    03:00 +11°C° 2.4 mm 7 mps 741 mmHg 95%
    04:00 +10°C° 2.4 mm 7 mps 741 mmHg 95%
    05:00 +10°C° 2.4 mm 7 mps 741 mmHg 95%
    06:00 +10°C° 1.4 mm 7 mps 741 mmHg 94%
    07:00 +10°C° 1.4 mm 7 mps 741 mmHg 94%
    08:00 +9°C° 1.4 mm 8 mps 742 mmHg 93%
    09:00 +10°C° 0.5 mm 7 mps 742 mmHg 89%
    10:00 +10°C° 0.5 mm 6 mps 743 mmHg 86%
    11:00 +11°C° 0.5 mm 6 mps 743 mmHg 82%
    12:00 +13°C° 0.1 mm 6 mps 743 mmHg 76%
    13:00 +14°C° 0.1 mm 6 mps 744 mmHg 71%
    14:00 +15°C° 0.1 mm 6 mps 744 mmHg 65%
    15:00 +15°C° 0 mm 5 mps 744 mmHg 65%
    16:00 +15°C° 0 mm 5 mps 744 mmHg 65%
    17:00 +14°C° 0 mm 5 mps 745 mmHg 65%
    18:00 +13°C° 0 mm 5 mps 745 mmHg 67%
    19:00 +12°C° 0 mm 5 mps 746 mmHg 68%
    20:00 +11°C° 0 mm 4 mps 746 mmHg 70%
    21:00 +8°C° 0 mm 4 mps 746 mmHg 71%
    22:00 +7°C° 0 mm 4 mps 747 mmHg 73%
    23:00 +6°C° 0 mm 4 mps 747 mmHg 74%

    Day after tomorrow, 1 June, Monday

    Time Temperature Precipitation Wind Pressure Humidity
    00:00 +5°C° 0 mm 4 mps 747 mmHg 76%
    01:00 +5°C° 0 mm 4 mps 747 mmHg 78%
    02:00 +4°C° 0 mm 4 mps 747 mmHg 79%
    03:00 +4°C° 0 mm 4 mps 747 mmHg 79%
    04:00 +4°C° 0 mm 4 mps 747 mmHg 78%
    05:00 +4°C° 0 mm 4 mps 747 mmHg 77%
    06:00 +5°C° 0 mm 5 mps 747 mmHg 73%
    07:00 +6°C° 0 mm 5 mps 747 mmHg 68%
    08:00 +8°C° 0 mm 5 mps 747 mmHg 63%
    09:00 +8°C° 0 mm 5 mps 747 mmHg 62%
    10:00 +9°C° 0 mm 6 mps 747 mmHg 60%
    11:00 +9°C° 0 mm 6 mps 747 mmHg 58%
    12:00 +9°C° 0 mm 5 mps 748 mmHg 61%
    13:00 +9°C° 0 mm 5 mps 748 mmHg 63%
    14:00 +9°C° 0 mm 5 mps 748 mmHg 66%
    15:00 +10°C° 0.1 mm 4 mps 748 mmHg 70%
    16:00 +10°C° 0.1 mm 4 mps 748 mmHg 75%
    17:00 +8°C° 0.1 mm 4 mps 747 mmHg 80%
    18:00 +9°C° 0.1 mm 3 mps 748 mmHg 81%
    19:00 +9°C° 0.1 mm 3 mps 748 mmHg 82%
    20:00 +8°C° 0.1 mm 2 mps 748 mmHg 83%
    21:00 +8°C° 0 mm 2 mps 748 mmHg 85%
    22:00 +7°C° 0 mm 2 mps 748 mmHg 88%
    23:00 +7°C° 0 mm 3 mps 748 mmHg 90%

    2 June, Tuesday

    Time Temperature Precipitation Wind Pressure Humidity
    00:00 +5°C° 0 mm 3 mps 747 mmHg 91%
    01:00 +5°C° 0 mm 3 mps 747 mmHg 91%
    02:00 +5°C° 0 mm 3 mps 747 mmHg 92%
    03:00 +5°C° 0 mm 3 mps 747 mmHg 90%
    04:00 +5°C° 0 mm 3 mps 747 mmHg 89%
    05:00 +5°C° 0 mm 4 mps 747 mmHg 88%
    06:00 +7°C° 0 mm 4 mps 747 mmHg 80%
    07:00 +9°C° 0 mm 5 mps 747 mmHg 72%
    08:00 +12°C° 0 mm 5 mps 747 mmHg 65%
    09:00 +13°C° 0 mm 5 mps 747 mmHg 61%
    10:00 +14°C° 0 mm 5 mps 747 mmHg 57%
    11:00 +15°C° 0 mm 6 mps 747 mmHg 53%
    12:00 +15°C° 0 mm 6 mps 746 mmHg 54%
    13:00 +15°C° 0 mm 5 mps 746 mmHg 55%
    14:00 +15°C° 0 mm 5 mps 746 mmHg 56%
    15:00 +15°C° 0 mm 5 mps 746 mmHg 59%
    16:00 +14°C° 0 mm 5 mps 746 mmHg 63%
    17:00 +14°C° 0 mm 4 mps 745 mmHg 66%
    18:00 +13°C° 0 mm 4 mps 745 mmHg 70%
    19:00 +11°C° 0 mm 4 mps 745 mmHg 75%
    20:00 +10°C° 0 mm 3 mps 745 mmHg 80%
    21:00 +10°C° 0 mm 3 mps 745 mmHg 82%
    22:00 +9°C° 0 mm 3 mps 745 mmHg 85%
    23:00 +8°C° 0 mm 3 mps 745 mmHg 87%

    3 June, Wednesday

    Time Temperature Precipitation Wind Pressure Humidity
    00:00 +8°C° 0 mm 4 mps 744 mmHg 85%
    01:00 +8°C° 0 mm 4 mps 744 mmHg 83%
    02:00 +9°C° 0 mm 5 mps 744 mmHg 81%
    03:00 +9°C° 0.2 mm 5 mps 743 mmHg 84%
    04:00 +8°C° 0.2 mm 5 mps 743 mmHg 88%
    05:00 +8°C° 0.2 mm 5 mps 742 mmHg 91%
    06:00 +8°C° 0.5 mm 5 mps 742 mmHg 93%
    07:00 +9°C° 0.5 mm 5 mps 742 mmHg 94%
    08:00 +9°C° 0.5 mm 5 mps 742 mmHg 96%
    09:00 +9°C° 0.9 mm 5 mps 742 mmHg 96%
    10:00 +9°C° 0.9 mm 5 mps 742 mmHg 96%
    11:00 +10°C° 0.9 mm 5 mps 742 mmHg 96%
    12:00 +10°C° 0.8 mm 5 mps 742 mmHg 96%
    13:00 +11°C° 0.8 mm 4 mps 742 mmHg 96%
    14:00 +12°C° 0.8 mm 4 mps 742 mmHg 96%
    15:00 +12°C° 0.1 mm 4 mps 742 mmHg 95%
    16:00 +13°C° 0.1 mm 4 mps 742 mmHg 94%
    17:00 +14°C° 0.1 mm 4 mps 741 mmHg 93%
    18:00 +13°C° 0.2 mm 3 mps 741 mmHg 94%
    19:00 +13°C° 0.2 mm 3 mps 741 mmHg 95%
    20:00 +14°C° 0.2 mm 2 mps 741 mmHg 96%
    21:00 +13°C° 0.2 mm 2 mps 741 mmHg 97%
    22:00 +13°C° 0.2 mm 2 mps 741 mmHg 97%
    23:00 +13°C° 0.2 mm 2 mps 741 mmHg 98%

    4 June, Thursday

    Time Temperature Precipitation Wind Pressure Humidity
    00:00 +12°C° 0 mm 2 mps 741 mmHg 97%
    01:00 +12°C° 0 mm 1 mps 741 mmHg 97%
    02:00 +12°C° 0 mm 1 mps 741 mmHg 97%
    03:00 +11°C° 0 mm 1 mps 741 mmHg 96%
    04:00 +11°C° 0 mm 1 mps 741 mmHg 96%
    05:00 +11°C° 0 mm 1 mps 741 mmHg 95%
    06:00 +13°C° 0 mm 1 mps 741 mmHg 91%
    07:00 +14°C° 0 mm 2 mps 741 mmHg 87%
    08:00 +15°C° 0 mm 2 mps 741 mmHg 83%
    09:00 +16°C° 0.2 mm 2 mps 741 mmHg 77%
    10:00 +17°C° 0.2 mm 3 mps 741 mmHg 71%
    11:00 +18°C° 0.2 mm 3 mps 741 mmHg 65%
    12:00 +18°C° 0.2 mm 3 mps 741 mmHg 63%
    13:00 +19°C° 0.2 mm 3 mps 741 mmHg 61%
    14:00 +19°C° 0.2 mm 3 mps 741 mmHg 59%
    15:00 +19°C° 0.1 mm 3 mps 741 mmHg 62%
    16:00 +18°C° 0.1 mm 3 mps 741 mmHg 65%
    17:00 +18°C° 0.1 mm 3 mps 741 mmHg 68%
    18:00 +17°C° 0.2 mm 2 mps 741 mmHg 75%
    19:00 +15°C° 0.2 mm 2 mps 741 mmHg 82%
    20:00 +14°C° 0.2 mm 2 mps 740 mmHg 89%
    21:00 +13°C° 0 mm 2 mps 740 mmHg 91%
    22:00 +12°C° 0 mm 1 mps 740 mmHg 92%
    23:00 +11°C° 0 mm 1 mps 740 mmHg 94%
    Show more